Showing default

ICEYE-X49, 62384

Orbit data source: Space-Track

ICEYE-X49, 62384 is a payload satellite owned by ICEYE (FI) in LEO that was launched on Sat, 21 Dec 2024 UTC via an FALCON 9 launch vehicle from the Air Force Western Test Range (AFWTR). Payload-class satellites include a variety of spacecraft equipped with specific instruments for various scientific and technological missions. These include communications satellites like Starlink; space stations such as the ISS; scientific satellites like the Hubble; Earth observation satellites from companies like Planet Labs, Umbra, and HawkEye 360; GPS; miniature CubeSats for education and research; and military/defense satellites.

Loading next visibility...
Identifier
62384, 2024-247H
Orbit
LEO
Country
Flag of FIFI / FIN
Related business
Manufacturer
ICEYE
Mission
Operational Commercial Radar Imaging
Bus & Motor
ICEYE, Unknown motor
Mass
80 kg wet, 80 kg dry
Launch date (UTC)
2024-12-21 (1 year ago)
Launch vehicle
FALCON 9
Launch site
Air Force Western Test Range (AFWTR)
Object type
Payload
Rocket body
Debris
Shape & HBR
Box + 1 Pan, 2.4 m
Radar Cross Section
0.776 m², Medium (>0.1 m² and < 1m²)

Expand to show TLE details & history
Last TLE update: 15 hours ago

TLE from 15 hours ago
0 ICEYE-X49
1 62384U 24247H   26171.20594928  .00003640  00000-0  21689-3 0  9990
2 62384  44.9994 341.2782 0001216 265.2379  94.8359 15.13006360 82637
Epoch: 2026-06-20T04:56Z
TLE epoch observation values (Epoch: 2026-06-20T04:56:34.017Z)
Latitude
-0.00007°
Longitude
-1.28751°
Altitude
527.107 km
Speed
7.601 km/s
True Right ascension
22h 45m 06s
True Declination
0° 00' 00"
Sunlit
Object was in daylight at epoch
Visualization orbit readout
Latitude
Unknown
Longitude
Unknown
Altitude
Unknown
Speed
Unknown
Apparent Right ascension
Unknown
Apparent Declination
Unknown
Sunlit
N/A
Visualization observer readout
Local Sidereal Time
07:18:32
Azimuth
Unknown
Elevation
Unknown
Doppler factor
Unknown
Orbital elements
Apogee altitude
529.477 km
Perigee altitude
527.797 km
Semi-major axis
6,906.774 km
Eccentricity
0.00012
Inclination
44.9994°
RAAN
341.2782°
Arg. of periapsis
265.2379°
True anomaly
94.84978°
Mean anomaly
94.8359°
Eccentric anomaly
94.84284°
Mean motion
3.78121 °/min
Orbital period
95.21 mins
BSTAR
0.00021689
Loading maneuver chart data...
Computing Atmospheric mass density...
Loading historical data...
Loading historical data...
Loading historical data...
Loading historical data...
Loading historical data...
Loading historical data...
Loading historical data...

Documentation

Showing up to 5 results
|